Regional Weather Roundup
Issued by NWS Mobile, AL

Home | Current Version | Previous Version | Text Only | Print | Product List | Glossary Off
Versions: 1 2 3 4 5 6 7 8 9 10 11 12 13 14 15 16 17 18 19 20 21 22 23 24 25 26 27

000
ASUS44 KMOB 220013
RWRMOB
REGIONAL WEATHER ROUNDUP
NATIONAL WEATHER SERVICE MOBILE AL
600 PM CST SUN JAN 21 2018

NOTE: "FAIR" INDICATES FEW OR NO CLOUDS BELOW 12,000 FEET WITH NO
      SIGNIFICANT WEATHER AND/OR OBSTRUCTIONS TO VISIBILITY.

  * THESE STATIONS ARE PART OF THE UNIVERSITY OF SOUTH ALABAMA
    MESONET AND ARE NOT UNDER NWS OR FAA QUALITY CONTROL.

ALZ061>064-220100-
COASTAL ALABAMA

CITY           SKY/WX    TMP DP  RH WIND       PRES   REMARKS
MOBILE REG APT FAIR      60  51  72 SE8       30.13R
6HR MIN TEMP:  60; 6HR MAX TEMP:  71;

BROOKLEY FIELD FAIR      58  51  78 SE7       30.14S
6HR MIN TEMP:  58; 6HR MAX TEMP:  69;

USA CAMPUS*    NOT AVBL
DOG RIVER*     NOT AVBL


CITY           SKY/WX    TMP DP  RH WIND       PRES   REMARKS
GULF SHORES    FAIR      56  52  88 E5        30.13S

$$

ALZ051>060-220100-
INTERIOR SOUTHWEST AND SOUTH CENTRAL ALABAMA

CITY           SKY/WX    TMP DP  RH WIND       PRES   REMARKS
GREENVILLE     FAIR      63  43  48 CALM      30.13F
6HR MIN TEMP:  62; 6HR MAX TEMP:  74;

EVERGREEN      FAIR      61  45  55 E3        30.13F
6HR MIN TEMP:  61; 6HR MAX TEMP:  74;

ATMORE*          N/A    N/A N/A N/A SE5         N/A
ANDALUSIA/OPP  FAIR      62  43  49 CALM      30.14S
6HR MIN TEMP:  61; 6HR MAX TEMP:  75;

ANDALUSIA*       N/A     63  45  51 SE3       30.13F
FLORALA APT    FAIR      60  43  53 CALM      30.16S
6HR MIN TEMP:  58; 6HR MAX TEMP:  72; 6HR PCP: TRACE;

FLORALA*         N/A     55  45  67 CALM      30.87S

$$

FLZ001>006-220100-
WESTERN FLORIDA PANHANDLE

CITY           SKY/WX    TMP DP  RH WIND       PRES   REMARKS
PENSACOLA      FAIR      57  46  66 E3        30.13F
6HR MIN TEMP:  56; 6HR MAX TEMP:  65;

NAS PENSACOLA  MOCLDY    55  48  77 E6        30.12F
6HR MIN TEMP:  55; 6HR MAX TEMP:  67;

MILTON         FAIR      54  40  59 CALM      30.13F
6HR MIN TEMP:  53; 6HR MAX TEMP:  72;

WHTNG S FIELD  MOCLDY    62  41  46 CALM      30.14F
6HR MIN TEMP:  61; 6HR MAX TEMP:  74;



CITY           SKY/WX    TMP DP  RH WIND       PRES   REMARKS
JAY*             N/A     57  39  51 S6        30.13F
DUKE FIELD     FAIR      57  39  51 S3        30.14S
CRESTVIEW      FAIR      58  39  49 CALM      30.16S
6HR MIN TEMP:  58; 6HR MAX TEMP:  74;

VALPARAISO     PTCLDY    56  43  61 CALM      30.13F
6HR MIN TEMP:  56; 6HR MAX TEMP:  66;

DESTIN         FAIR      60  47  61 CALM      30.14F
6HR MIN TEMP:  60; 6HR MAX TEMP:  68;


$$

MSZ076-079-220100-
INTERIOR SOUTHEAST MISSISSIPPI

CITY           SKY/WX    TMP DP  RH WIND       PRES   REMARKS
LEAKESVILLE*     N/A     64  50  59 W5        30.12S
AGRICOLA*        N/A     59  52  77 CALM      30.11S

$$

MARINE OBSERVATIONS

STATION/POSITION TIME  TEMP    WIND        PRES    WAVE
                       AIR SEA DIR/SP/G            HT/PER
                 (UTC) (F)     (DEG/KT/KT) (MB)    (FT/S)
PASCAGOULA       2348   62     150/  3/  7 1019.5S
PETIT BOIS ISLND 2348   55      70/  8/  9 1020.4S
GRAND BAY        2245   59     100/ 12     1020.0F
KATRINA CUT      2330   57     110/ 14     1020.0F
CEDAR POINT      2330   55     110/  8     1019.6F
E DAUPHIN ISLAND 0000   59     100/ 10/ 10 1019.6R
MIDDLE BAY LIGHT 2330   54     110/ 13     1019.3F
USCG MOBILE BAY  2348   58 50  180/  2/  5 1020.3R
STATE DOCKS      2348   62 50              1020.2S
MEAHER PARK      2330   64     120/  7     1020.3R
WEEKS BAY        2245   63                 1020.0S
FORT MORGAN      2348   59     110/ 16/ 17   N/A
12 S ORANGE BCH  NOT AVBL
PENSACOLA BAY    2348   57 49   70/  4/  5 1020.7F
64 S DAUPHIN ISL 0000   67 67  100/ 12/ 16 1019.2
67 S FORT MORGAN 2330   67                 1019.0S

$$

SELECTED LOCATIONS ACROSS THE REGION

CITY           SKY/WX    TMP DP  RH WIND       PRES   REMARKS
NEW ORLEANS    MOCLDY    66  60  81 SE15G23   30.05F
GULFPORT       FAIR      62  55  77 E13       30.09F
PASCAGOULA AP  FAIR      60  51  72 E7        30.12R
PASCAGOULA*      N/A     57  54  88 E6          N/A
HATTIESBURG    FAIR      65  54  67 S5        30.09S
LAUREL         FAIR      65  53  65 SE6       30.09S
MERIDIAN       FAIR      61  48  62 CALM      30.09S
JACKSON        FAIR      66  56  70 SE9       30.02F
MONTGOMERY     FAIR      61  43  51 SE7       30.14S
TROY           FAIR      59  44  57 CALM      30.15F
ASHFORD*         N/A     63  45  51 SE3       30.13F
DOTHAN         FAIR      53  42  66 S3        30.20R
PANAMA CITY    FAIR      58  43  57 SE5       30.15S

$$





USA.gov is the U.S. government's official web portal to all federal, state and local government web resources and services.